GW5559 Weather Reports


time (UTC)temp
F
wind
direction
speed
knots
gust
knots
rain 1hr
in
rain 24hr
in
rain mn
in
humidity
%
barometer
mb
20260504130516 51 223 3.5 7.0 0.00 0.00 0.00 60 1012.0
20260504110515 46 0.0 0.0 0.00 0.00 0.00 70 1012.1
20260504100517 41 0.0 0.0 0.00 0.00 0.00 72 1011.9
20260504081517 42 250 0.9 2.6 0.00 0.00 0.00 71 1012.2
20260504080517 42 0.0 0.0 0.00 0.00 0.00 70 1012.1
20260504050517 46 248 1.7 3.5 0.00 0.00 0.00 62 1012.0
20260504045517 47 249 2.6 3.5 0.00 0.00 0.00 60 1012.0
20260504044517 47 228 2.6 3.5 0.00 0.00 0.00 61 1012.0
20260504043517 47 237 2.6 4.3 0.00 0.00 0.00 62 1011.9
20260504042517 45 249 3.5 7.0 0.00 0.00 0.00 65 1011.9
20260504041517 45 278 0.9 2.6 0.00 0.00 0.00 66 1011.9
20260504040517 45 278 0.9 1.7 0.00 0.00 0.00 65 1011.7
20260504035516 45 0.0 0.9 0.00 0.00 0.00 65 1011.6
20260504034515 45 278 0.0 0.9 0.00 0.00 0.00 65 1011.4
20260504033516 45 0.0 0.0 0.00 0.00 0.00 62 1011.3
20260504032515 47 0.0 0.0 0.00 0.00 0.00 60 1011.4
20260504031516 47 0.0 0.9 0.00 0.00 0.00 59 1011.2
20260504030515 46 278 0.9 0.9 0.00 0.00 0.00 61 1011.2
20260504025515 47 0.0 0.0 0.00 0.00 0.00 60 1011.2
20260504024516 46 278 0.9 2.6 0.00 0.00 0.00 61 1011.2
20260504023516 48 278 0.0 0.9 0.00 0.00 0.00 58 1011.2
20260504022516 49 0.0 0.9 0.00 0.00 0.00 56 1011.3
20260504021515 48 0.0 0.0 0.00 0.00 0.00 57 1011.3
20260504020515 49 0.0 0.0 0.00 0.00 0.00 55 1011.2
20260504015515 50 278 0.9 2.6 0.00 0.00 0.00 53 1011.2
20260504014516 49 278 1.7 2.6 0.00 0.00 0.00 57 1011.2
20260504013535 50 278 0.9 2.6 0.00 0.00 0.00 54 1011.1
20260504012516 51 278 0.9 1.7 0.00 0.00 0.00 50 1011.2
20260504011516 52 278 1.7 1.7 0.00 0.00 0.00 49 1011.1
20260504010515 51 278 0.0 1.7 0.00 0.00 0.00 50 1011.0
20260504005536 52 278 0.9 2.6 0.00 0.00 0.00 49 1010.9
20260504004515 53 272 1.7 5.2 0.00 0.00 0.00 48 1010.9
20260504003515 53 243 4.3 7.0 0.00 0.00 0.00 46 1010.6
20260504002535 54 248 5.2 7.0 0.00 0.00 0.00 46 1010.4
20260504001515 55 244 5.2 10.4 0.00 0.00 0.00 44 1010.3
20260504000535 55 247 6.1 11.3 0.00 0.00 0.00 42 1010.3
20260503235515 56 253 6.1 13.0 0.00 0.00 0.00 41 1010.2
20260503234516 57 249 8.7 13.9 0.00 0.00 0.00 40 1010.2
20260503233536 57 254 8.7 19.1 0.00 0.00 0.00 40 1010.0
20260503232515 58 248 10.4 16.5 0.00 0.00 0.00 40 1009.9
20260503231535 58 249 7.0 11.3 0.00 0.00 0.00 40 1009.8
20260503230515 58 247 6.1 9.6 0.00 0.00 0.00 39 1009.8
20260503225515 57 256 7.8 16.5 0.00 0.00 0.00 39 1009.9
20260503224515 59 255 9.6 13.9 0.00 0.00 0.00 39 1009.8
20260503223515 58 252 9.6 15.6 0.00 0.00 0.00 39 1009.7
20260503222536 59 267 10.4 20.0 0.00 0.00 0.00 38 1009.7
20260503221515 59 249 8.7 13.9 0.00 0.00 0.00 40 1009.7
20260503220516 58 253 13.0 21.7 0.00 0.00 0.00 38 1009.7
20260503215515 58 256 10.4 17.4 0.00 0.00 0.00 40 1009.8
20260503214515 58 267 7.0 12.2 0.00 0.00 0.00 39 1009.8
20260503213535 58 263 8.7 16.5 0.00 0.00 0.00 39 1009.7
20260503212515 57 246 11.3 17.4 0.00 0.00 0.00 39 1009.6
20260503211515 58 252 13.0 20.9 0.00 0.00 0.00 37 1009.7
20260503210515 58 238 13.0 20.9 0.00 0.00 0.00 38 1009.6
20260503205516 58 250 13.0 17.4 0.00 0.00 0.00 37 1009.6
20260503204515 58 256 7.8 18.2 0.00 0.00 0.00 36 1009.6
20260503203515 58 244 16.5 20.9 0.00 0.00 0.00 38 1009.6
20260503202515 58 245 14.8 21.7 0.00 0.00 0.00 36 1009.7
20260503201516 58 266 11.3 22.6 0.00 0.00 0.00 36 1009.8
20260503200515 57 349 7.0 16.5 0.00 0.00 0.00 36 1009.9
20260503195515 57 258 8.7 15.6 0.00 0.00 0.00 37 1010.1
20260503194535 58 249 11.3 19.1 0.00 0.00 0.00 37 1010.3
20260503193515 58 288 8.7 16.5 0.00 0.00 0.00 37 1010.4
20260503192535 56 268 8.7 23.5 0.00 0.00 0.00 38 1010.5
20260503191515 56 244 13.0 20.9 0.00 0.00 0.00 40 1010.6
20260503190515 56 247 13.9 22.6 0.00 0.00 0.00 39 1010.6
20260503185535 56 262 11.3 21.7 0.00 0.00 0.00 39 1010.8
20260503184515 56 288 10.4 24.3 0.00 0.00 0.00 41 1011.0
20260503183515 55 310 10.4 23.5 0.00 0.00 0.00 38 1011.0
20260503182536 55 285 13.0 23.5 0.00 0.00 0.00 39 1011.1
20260503181516 54 317 9.6 20.0 0.00 0.00 0.00 40 1011.1
20260503180515 54 279 11.3 24.3 0.00 0.00 0.00 41 1011.1
20260503175515 54 283 13.0 21.7 0.00 0.00 0.00 41 1011.3
20260503174535 53 288 7.0 19.1 0.00 0.00 0.00 43 1011.4
20260503173515 53 257 16.5 26.9 0.00 0.00 0.00 42 1011.4
20260503172515 52 316 5.2 14.8 0.00 0.00 0.00 42 1011.6
20260503171516 52 330 8.7 20.9 0.00 0.00 0.00 43 1011.8
20260503170535 51 265 13.0 19.1 0.00 0.00 0.00 44 1011.8
20260503150515 48 286 12.2 20.0 0.00 0.00 0.00 48 1012.3